Miscellaneous Local Product
Issued by NWS Hastings, NE

Home | Current Version | Previous Version | Text Only | Print | Product List | Glossary Off
Versions: 1 2 3 4 5 6 7 8 9 10 11 12 13 14 15 16 17 18 19 20 21 22 23 24 25 26 27 28 29 30 31 32 33 34 35 36 37 38 39 40 41 42 43 44 45 46 47 48 49 50

000
AXUS43 KGID 011702
MISGRI

GID CWA HOURLY WEATHER ROUNDUP
NATIONAL WEATHER SERVICE HASTINGS NE
1200 PM CDT SAT AUG 01 2015

NOTE: "FAIR" INDICATES FEW OR NO CLOUDS BELOW 12,000 FEET WITH NO
SIGNIFICANT WEATHER AND/OR OBSTRUCTIONS TO VISIBILITY.

...SOUTH CENTRAL NEBRASKA...

CITY           SKY/WX    TMP DP  RH WIND       PRES   REMARKS
GRAND ISLAND   MOSUNNY   82  64  54 S7        30.07F
HASTINGS       MOSUNNY   78  60  53 E7        30.09S
KEARNEY        SUNNY     81  61  50 E10       30.11S
ORD            PTSUNNY   74  63  68 NW13      30.12R
YORK           CLOUDY    75  64  69 SW5       30.04S
AURORA         PTSUNNY   75  64  68 S6        30.06F
LEXINGTON      SUNNY     80  56  44 E17G23    30.12S
HOLDREGE       SUNNY     79  57  47 E15       30.11S
HEBRON         MOSUNNY   80  59  47 E7        30.08F

...NEBRASKA PANHANDLE...

CITY           SKY/WX    TMP DP  RH WIND       PRES   REMARKS
CHADRON        SUNNY     84  56  38 S3        30.04S
ALLIANCE       SUNNY     87  57  35 W12       30.08S
SCOTTSBLUFF    SUNNY     84  57  39 W7        30.08F
SIDNEY         SUNNY     88  54  31 S17       30.12S

...WESTERN AND NORTH CENTRAL NEBRASKA...

CITY           SKY/WX    TMP DP  RH WIND       PRES   REMARKS
VALENTINE      LGT RAIN  62  59  90 S25G32    30.09F
AINSWORTH      LGT RAIN  60  58  95 S16       30.17S
ONEILL         RAIN      66  62  87 SW17      30.12F
BROKEN BOW     SUNNY     83  57  41 SE9       30.14R
IMPERIAL       SUNNY     85  63  47 SE16      30.10F
NORTH PLATTE   SUNNY     78  60  53 E21       30.12S
MCCOOK         SUNNY     82  62  50 E15       30.11F

...EASTERN NEBRASKA...

CITY           SKY/WX    TMP DP  RH WIND       PRES   REMARKS
NORFOLK        CLOUDY    75  62  64 W6        30.06R
SO SIOUX CITY  PTSUNNY   81  66  60 W7        30.01F
TEKAMAH        PTSUNNY   81  64  56 CALM      30.02F
COLUMBUS       CLOUDY    73  61  64 NW3       30.04R
ALBION         CLOUDY    69  60  73 S8        30.05F
OMAHA EPPLEY   CLOUDY    78  65  63 N5        30.03R
OFFUTT AFB     CLOUDY    75  68  78 E9        30.01F
MILLARD        CLOUDY    78  65  65 NE3       30.02F
LINCOLN        CLOUDY    78  63  59 S8        30.03S
NEBRASKA CITY  PTSUNNY   78  62  58 CALM      30.05F
BEATRICE       PTSUNNY   76  63  62 SE5       30.07F
FALLS CITY     MOSUNNY   83  73  72 NE5       30.04F

...NORTHERN KANSAS...

CITY           SKY/WX    TMP DP  RH WIND       PRES   REMARKS
GOODLAND       SUNNY     85  59  41 S16G25    30.12F
HILL CITY      MOSUNNY   85  68  56 VRB7      30.10F
NORTON         SUNNY     81  57  44 E8        30.10S
PHILLIPSBURG   SUNNY     86  64  48 E9        30.09F
SMITH CENTER   SUNNY     82  61  47 E12       30.09S
HAYS           SUNNY     84  64  51 E3        30.09S
RUSSELL        SUNNY     86  68  54 VRB5      30.08S
CONCORDIA      SUNNY     85  70  60 E7        30.08S
SALINA         MOSUNNY   89  70  53 SE3       30.07S HX  94
TOPEKA         MOSUNNY   89  73  59 NW6       30.06F HX  97



USA.gov is the U.S. government's official web portal to all federal, state and local government web resources and services.